Regional Weather Roundup
Issued by NWS

Home | Current Version | Previous Version | Text Only | Print | Product List | Glossary On
Versions: 1 2 3 4 5 6 7 8 9 10 11 12 13 14 15 16 17 18 19 20 21 22 23 24 25 26 27 28 29 30 31 32 33 34 35 36 37 38 39 40 41 42 43 44 45 46 47 48 49 50
000
ASCA42 TJSJ 310510
RWRPR
PUERTO RICO/U.S. VIRGIN ISLANDS HOURLY WEATHER ROUNDUP
NATIONAL WEATHER SERVICE SAN JUAN PR
100 AM AST MON AUG 31 2015

PRZ001-004-310600-
PUERTO RICO

CITY           SKY/WX    TMP DP  RH WIND       PRES   REMARKS
SAN JUAN LMM   PTCLDY    81  75  83 E3        30.04
PONCE          PTCLDY    79  73  83 CALM      29.99
$$

PRZ006-007-310600-
U.S. VIRGIN ISLANDS

CITY           SKY/WX    TMP DP  RH WIND       PRES   REMARKS
CHARLOTTE AMA  CLEAR     82  77  83 E8        30.03S HX  91
CHRISTIANSTED  CLEAR     81  75  83 NE6       30.03F
$$

HOURLY WEATHER ROUNDUP FOR THE NEWS MEDIA

CITY           SKY/WX    TMP DP  RH WIND       PRES   REMARKS
ORLANDO        MOCLDY    77  75  93 S8        30.02F
NEW YORK       CLOUDY    77  67  71 SW9       30.05S
NEWARK         CLOUDY    80  66  62 SW14      30.03F
CHICAGO        CLEAR     64  63  96 SE3       30.04S FOG
HARTFORD       PTCLDY    71  68  90 SW5       30.01F
BOSTON         PTCLDY    76  65  68 SW8       30.00S
DALLAS         PTCLDY    83  63  50 S9        29.94F
PHILADELPHIA   CLOUDY    79  65  62 SW10      30.07F
LOS ANGELES    PTCLDY    72  65  78 W7        29.84S
WASHINGTON DC  CLOUDY    75  66  73 S6        30.09S


USA.gov is the U.S. government's official web portal to all federal, state and local government web resources and services.